• MPC Preparation (Info)

  • MPEC 2016-O60 : 2014 UO224

    The following Minor Planet Electronic Circular may be linked-to from your own Web pages, but must not otherwise be redistributed electronically.

    A form allowing access to any MPEC is at the bottom of this page.


    Read MPEC 2016-O59 Read MPEC 2016-O61


    M.P.E.C. 2016-O60                                Issued 2016 July 16, 22:04 UT
    
         The Minor Planet Electronic Circulars contain information on unusual
             minor planets and routine data on comets.  They are published
        on behalf of Division F of the International Astronomical Union by the
              Minor Planet Center, Smithsonian Astrophysical Observatory,
                              Cambridge, MA 02138, U.S.A.
    
                 Prepared using the Tamkin Foundation Computer Network
    
                                  MPC@CFA.HARVARD.EDU
                URL https://www.minorplanetcenter.net/    ISSN 1523-6714
    
                                      2014 UO224
    
    Observations:
         K14UM4O  C2010 10 11.47572 04 46 07.639+22 32 32.36         21.9 wLEO060F51
         K14UM4O  C2010 10 11.48970 04 46 07.595+22 32 32.25         21.7 wLEO060F51
         K14UM4O  C2010 10 11.50411 04 46 07.560+22 32 32.29         21.8 wLEO060F51
         K14UM4O  C2010 10 11.51811 04 46 07.532+22 32 32.22         21.6 wLEO060F51
         K14UM4O  C2010 11 09.54328 04 44 11.070+22 28 11.88         21.6 wLEO060F51
         K14UM4O  C2010 11 09.56141 04 44 10.976+22 28 11.70         21.7 wLEO060F51
         K14UM4O  C2010 11 09.57964 04 44 10.883+22 28 11.58         21.9 wLEO060F51
         K14UM4O  C2010 11 09.59781 04 44 10.789+22 28 11.25         21.8 wLEO060F51
         K14UM4O  C2011 10 25.42692 04 52 13.625+22 30 13.27         21.5 wLEO060F51
         K14UM4O  C2011 10 25.44144 04 52 13.571+22 30 13.14         21.4 wLEO060F51
         K14UM4O  C2011 10 25.45587 04 52 13.515+22 30 13.12         21.4 wLEO060F51
         K14UM4O  C2011 10 25.47031 04 52 13.454+22 30 12.94         21.4 wLEO060F51
         K14UM4O  C2013 11 27.36248 05 03 23.441+22 21 01.57         21.2 wLEO060F51
         K14UM4O  C2013 11 27.37772 05 03 23.352+22 21 01.42         21.2 wLEO060F51
         K14UM4O  C2013 11 27.39293 05 03 23.265+22 21 01.26         21.3 wLEO060F51
         K14UM4O  C2013 11 27.40829 05 03 23.180+22 21 01.14         21.4 wLEO060F51
         K14UM4O* C2014 10 25.62640 05 12 58.300+22 21 58.31         21.8 wLEO060F51
         K14UM4O  C2014 10 25.62905 05 12 58.295+22 21 58.59         22.2 wLEO060F51
         K14UM4O  C2014 10 25.63175 05 12 58.278+22 21 58.42         22.0 wLEO060F51
         K14UM4O  C2014 10 25.63439 05 12 58.251+22 21 58.24         22.0 wLEO060F51
         K14UM4O  C2014 11 26.34212 05 10 29.578+22 17 45.33         21.2 wLEO060F51
         K14UM4O  C2014 11 26.35404 05 10 29.509+22 17 45.23         21.3 wLEO060F51
         K14UM4O  C2014 11 26.36597 05 10 29.450+22 17 45.11         21.4 wLEO060F51
         K14UM4O  C2014 11 26.37793 05 10 29.386+22 17 45.12         21.7 wLEO060F51
         K14UM4O  C2015 01 18.23212 05 05 47.440+22 10 19.89         21.8 wLEO060F51
         K14UM4O  C2015 01 18.24607 05 05 47.390+22 10 19.57         22.1 wLEO060F51
         K14UM4O  C2015 01 18.26001 05 05 47.325+22 10 19.59         21.7 wLEO060F51
         K14UM4O  C2015 01 18.27399 05 05 47.269+22 10 19.68         21.4 wLEO060F51
         K14UM4O  C2015 01 20.22614 05 05 39.371+22 10 06.70         21.6 wLEO060F51
         K14UM4O  C2015 01 20.23970 05 05 39.303+22 10 06.75         21.6 wLEO060F51
         K14UM4O  C2015 01 20.25326 05 05 39.244+22 10 06.67         21.7 wLEO060F51
         K14UM4O  C2015 01 20.26678 05 05 39.199+22 10 06.55         21.7 wLEO060F51
    
    Observer details:
    F51 Pan-STARRS 1, Haleakala.  Observers B. Gibson, T. Goggia, N. Primak,
        A. Schultz, M. Willman.  Measurers K. Chambers, S. Chastel, Y.-T. Chen,
        L. Denneau, H. Flewelling, M. Holman, M. Huber, R. Jedicke, M. Lackner,
        E. Lilly, H.-W. Lin, E. Magnier, M. Micheli, M. Payne, P. Veres,
        R. Wainscoat, C. Waters, R. Weryk.  1.8-m Ritchey-Chretien + CCD.
    
    Orbital elements:
    2014 UO224
    Epoch 2016 July 31.0 TT = JDT 2457600.5                 MPC
    M 329.00746              (2000.0)            P               Q
    n   0.00360160     Peri.  226.05624     -0.48356004     -0.86673862
    a  42.1508012      Node   253.23166     +0.83519866     -0.41510174
    e   0.1111303      Incl.    7.33273     +0.26194060     -0.27650446
    P 274              H    5.6           G   0.15           U   2
    Residuals in seconds of arc
    101011 F51  0.0   0.1-    111025 F51  0.0   0.0     141126 F51  0.1+  0.0
    101011 F51  0.1-  0.1-    131127 F51  0.0   0.0     141126 F51  0.1+  0.1+
    101011 F51  0.0   0.0     131127 F51  0.0   0.0     150118 F51  0.1-  0.1+
    101011 F51  0.2+  0.1+    131127 F51  0.0   0.0     150118 F51  0.0   0.2-
    101109 F51  0.0   0.0     131127 F51  0.0   0.0     150118 F51  0.1-  0.1-
    101109 F51  0.0   0.0     141025 F51  0.0   0.2-    150118 F51  0.0   0.1+
    101109 F51  0.0   0.1+    141025 F51  0.1+  0.1+    150120 F51  0.2+  0.1-
    101109 F51  0.0   0.0     141025 F51  0.0   0.0     150120 F51  0.0   0.1+
    111025 F51  0.0   0.0     141025 F51  0.2-  0.2-    150120 F51  0.1-  0.1+
    111025 F51  0.0   0.0     141126 F51  0.0   0.0     150120 F51  0.1+  0.0
    111025 F51  0.0   0.1+    141126 F51  0.0   0.0
    
    Ephemeris:
    2014 UO224               a,e,i = 42.15, 0.11, 7                  q = 37.467
    Date    TT    R. A. (2000) Decl.     Delta      r     Elong.  Phase     V
    2016 06 16    05 19 57.4 +22 11 39  39.3166 38.3038     4.4     0.1    21.5
    ...
    2016 07 01    05 21 47.5 +22 12 49  39.2654 38.3010    18.2     0.5    21.6
    ...
    2016 07 09    05 22 43.7 +22 13 20  39.2136 38.2996    25.6     0.7    21.6
    ...
    2016 07 15    05 23 24.0 +22 13 40  39.1643 38.2984    31.2     0.8    21.6
    2016 07 16    05 23 30.6 +22 13 43  39.1552 38.2983    32.1     0.8    21.6
    2016 07 17    05 23 37.1 +22 13 46  39.1459 38.2981    33.1     0.8    21.6
    ...
    2016 07 23    05 24 14.8 +22 14 02  39.0853 38.2970    38.6     0.9    21.6
    ...
    2016 07 31    05 25 01.4 +22 14 18  38.9925 38.2955    46.1     1.1    21.6
    ...
    2016 08 15    05 26 15.4 +22 14 32  38.7862 38.2927    60.2     1.3    21.6
    
    A. U. Tomatic                (C) Copyright 2016 MPC           M.P.E.C. 2016-O60
    

    Read MPEC 2016-O59 Read MPEC 2016-O61


    MPEC number:

    Enter an MPEC number in one of the following forms:

    • 1997-B01 (the full form)
    • J97B01 (the packed version of the full form)
    • B01 (the abbreviated form)